User: anonymous   Login
Location: Unspecified
(0.0000°N, 0.0000°E)
Time: 08:27:06
(UTC+00:00)
Language:

A-11 Canister half - Orbit

View from above orbital plane
View from above orbital plane
View from above satellite
View from above satellite

Ground track
Ground track

The orbit data is extracted from the following two-line orbital elements,

1    53U 60009E   17019.71801453 -.00000085 +00000-0 +00000-0 0  9994
2    53 047.2758 137.3640 0096464 003.6005 356.5460 12.17191799516952
Epoch (UTC): 19 January 2017 17:13:56
Eccentricity: 0.0096464
inclination: 47.2758°
perigee height: 1528 km
apogee height: 1682 km
right ascension of ascending node: 137.3640°
argument of perigee: 3.6005°
revolutions per day: 12.17191799
mean anomaly at epoch: 356.5460°
orbit number at epoch: 51695

The dashed part of the orbit path shows where the satellite is in the earth's shadow,  

DLR